Back to catalog

STARLINK-34966

AliveCommunicationsSSO
NORAD 65257·PAYLOAD·🇺🇸 United States

Launched Aug 18, 2025 from Vandenberg Space Force Base

Loading…

Next Passes (next 24 hours)

TLE

FreshSource: CelesTrak SupGP

Epoch: Sep 14, 2026, 23:15 UTC

1 65257C 25179Y   26257.96923611  .00024750  00000+0  76843-3 0  2573
2 65257  97.2835 297.3503 0001288  86.9902 267.4803 15.33421948    14

Track STARLINK-34966 in real time with AllMySat

Download on the App Store